(455) Bruchsalia(455) Bruchsalia Epoch 2008 Nov. 30.0 TT = JDT 2454800.5 Goffin M 303.77582 (2000.0) P Q n 0.22778410 Peri. 272.21212 +0.95971455 +0.19464226 a 2.6553419 Node 76.61216 -0.09037397 +0.89670614 e 0.2946347 Incl. 12.02269 -0.26604611 +0.39753300 P 4.33 H 8.86 G 0.15 U 0 From 663 observations at 47 oppositions, 1900-2004, mean residual 0".54.An explanation of the orbital elements is available.
These orbital elements are also available in forms suitable for loading into a number of popular planetarium-type software programs.
Personalized ephemerides for this object (and others) can be generated using the MPES.
Date TT R. A. (2000) Decl. Delta r Elong. Phase V 2009 08 09 01 46.16 -09 00.5 1.219 1.874 113.8 29.7 11.9 2009 08 14 01 50.98 -09 07.0 1.182 1.875 117.2 28.7 11.9 2009 08 19 01 55.04 -09 17.0 1.146 1.876 120.7 27.6 11.8 2009 08 24 01 58.26 -09 30.1 1.113 1.879 124.3 26.4 11.7 2009 08 29 02 00.60 -09 45.9 1.082 1.881 128.1 25.0 11.6 2009 09 03 02 02.02 -10 03.7 1.054 1.885 132.1 23.4 11.5 2009 09 08 02 02.49 -10 22.7 1.029 1.889 136.1 21.7 11.4 2009 09 13 02 02.00 -10 42.0 1.007 1.893 140.3 19.9 11.3 2009 09 18 02 00.54 -11 00.5 0.989 1.899 144.4 17.9 11.2 2009 09 23 01 58.18 -11 16.8 0.975 1.904 148.5 16.0 11.1 2009 09 28 01 55.01 -11 29.5 0.966 1.911 152.4 14.1 11.0 2009 10 03 01 51.17 -11 37.4 0.961 1.918 155.7 12.4 10.9 2009 10 08 01 46.82 -11 39.4 0.961 1.925 158.2 11.1 10.9 2009 10 13 01 42.14 -11 34.4 0.967 1.933 159.4 10.5 10.9 2009 10 18 01 37.34 -11 21.9 0.978 1.941 159.0 10.6 10.9 2009 10 23 01 32.64 -11 01.5 0.994 1.950 157.2 11.4 11.0 2009 10 28 01 28.25 -10 33.2 1.016 1.960 154.3 12.7 11.1 2009 11 02 01 24.34 -09 57.5 1.043 1.969 150.7 14.3 11.2 2009 11 07 01 21.03 -09 15.1 1.076 1.980 146.6 16.0 11.4 2009 11 12 01 18.43 -08 26.8 1.113 1.990 142.3 17.7 11.5 2009 11 17 01 16.60 -07 33.4 1.154 2.001 138.0 19.3 11.7 2009 11 22 01 15.57 -06 35.7 1.200 2.013 133.6 20.8 11.8 2009 11 27 01 15.35 -05 34.5 1.250 2.025 129.3 22.1 11.9